Torna al catalogo

THORAD DELTA 1 DEB

AttivoSSO
NORAD 8436·DEBRIS·🇺🇸 United States

Lanciato Nov 15, 1974 da Vandenberg Space Force Base

Loading…

Prossimi Passaggi (prossime 24 ore)

TLE

AggiornatoSource: Space-Track

Epoca: Sep 14, 2026, 14:12 UTC

1 08436U 74089CM  26257.59200719 -.00000015  00000-0  21796-3 0  9999
2 08436 101.7869   4.9689 0086957 250.5151 121.9530 12.35436573337727

Traccia THORAD DELTA 1 DEB in tempo reale con AllMySat

Download on the App Store